Wind_Speed
14 14 15 15 15 15 15 16 16 17 18 19 19 19 19 19 20 20 20 20 21 23 26 28 29 29 29 30 31 32 33 34 35 36 37 37 38 38 39 40 42 43
15 15 15 16 16 16 17 17 17 18 19 19 18 19 19 20 20 20 21 21 22 24 27 28 29 30 30 31 32 33 34 34 35 36 37 38 38 39 40 41 42 44
16 16 16 16 16 17 17 17 17 18 18 18 18 19 20 20 20 21 21 22 23 25 26 28 29 30 31 31 32 33 34 34 35 36 37 38 39 40 40 42 43 45
17 17 16 16 17 17 17 17 18 18 18 19 19 19 20 20 21 21 22 23 24 25 26 27 29 30 31 32 33 33 34 34 34 35 36 38 40 40 41 42 44 45
18 18 18 18 18 18 18 18 19 19 19 19 20 20 20 21 21 22 22 23 24 25 27 28 29 30 31 32 33 34 34 34 34 35 36 38 40 41 42 42 44 45
18 18 19 19 19 19 20 20 20 20 20 20 21 21 21 22 22 23 24 24 25 26 27 28 29 30 31 32 33 34 34 34 34 35 36 37 39 41 42 43 44 46
18 18 18 19 19 20 20 21 22 22 22 22 22 22 23 23 24 24 25 26 26 27 28 28 29 30 31 31 32 33 34 34 34 35 35 37 39 41 43 44 45 46
18 18 18 19 19 20 20 21 22 23 23 24 24 24 25 25 25 25 26 27 27 28 28 29 29 30 31 31 32 33 34 34 35 35 36 37 38 41 43 44 45 47
19 18 18 18 19 19 20 20 21 22 23 23 24 25 25 26 26 27 27 27 28 28 29 29 30 30 31 31 31 32 33 34 35 36 36 37 38 40 43 44 45 47
19 19 19 18 18 19 19 20 20 21 22 23 23 24 25 25 26 27 28 28 29 29 29 30 30 30 31 32 32 32 33 34 35 36 37 38 39 40 42 44 45 47
19 19 19 19 19 19 20 20 21 21 22 23 23 24 25 25 26 27 28 29 29 30 30 31 31 31 31 32 33 33 34 34 35 36 37 37 38 40 42 44 45 47
20 20 20 20 20 20 20 21 22 22 23 23 24 24 24 25 26 26 28 29 30 30 31 31 31 32 32 33 34 34 35 35 36 36 37 38 38 40 42 44 45 47
21 21 21 21 20 20 21 21 22 23 24 24 24 25 25 25 26 26 27 29 30 30 31 31 32 32 32 33 34 35 36 36 37 37 38 38 38 39 42 43 45 46
23 22 22 22 21 21 21 22 23 24 25 25 25 26 26 26 26 27 27 28 29 30 31 31 32 32 33 33 34 36 36 37 38 38 38 38 38 39 41 43 44 46
23 23 23 23 23 22 22 23 24 25 25 26 26 27 27 27 27 27 28 29 29 29 30 31 32 32 33 33 34 36 37 38 38 39 39 39 38 39 41 43 44 46
25 25 25 24 24 24 23 24 26 26 26 26 27 27 27 27 28 27 28 29 30 29 29 30 31 32 33 33 34 36 37 38 39 39 40 39 39 39 41 43 44 46
26 26 26 25 25 25 25 26 27 28 28 28 28 28 27 27 28 28 28 29 30 29 29 30 31 31 32 33 34 35 37 38 39 39 40 40 39 40 41 43 44 45
27 27 27 26 26 26 26 27 28 29 30 30 30 30 29 29 29 28 28 29 30 29 29 30 30 30 32 32 33 34 36 38 39 39 40 40 39 40 40 42 43 44
28 28 28 28 27 27 26 26 27 29 30 31 31 31 31 31 31 30 29 29 30 29 29 30 30 30 31 32 33 34 35 36 38 39 39 39 39 39 40 41 43 44
30 30 30 29 29 28 27 26 27 28 29 30 32 32 32 33 33 32 31 30 30 30 29 30 31 31 31 32 32 33 34 35 36 37 38 39 39 39 39 41 42 43
33 32 32 31 31 30 29 28 27 27 28 30 31 32 33 33 34 34 33 32 32 32 31 31 32 32 32 32 32 32 33 34 35 36 37 38 39 39 39 40 41 42
34 34 34 33 32 32 31 31 30 29 29 30 31 32 33 33 34 34 35 35 34 34 33 32 32 32 32 32 32 31 32 33 34 35 36 37 38 38 38 39 40 41
35 36 35 35 34 33 32 32 32 31 30 30 31 32 34 34 34 34 34 35 36 36 35 34 33 32 31 32 32 30 29 31 32 33 34 35 37 38 38 38 39 41
36 36 36 36 35 35 35 34 33 32 32 31 31 32 33 34 35 34 34 34 35 36 36 36 36 34 32 32 31 28 28 30 31 31 33 34 35 37 37 37 39 40
36 37 37 36 35 36 38 38 37 35 33 32 32 32 32 33 34 34 33 32 33 35 36 38 38 36 34 31 29 27 28 30 30 30 32 32 34 35 36 36 38 39
37 37 38 38 35 35 37 39 39 37 35 34 34 34 33 33 33 33 32 31 31 33 34 37 39 39 37 33 29 27 28 29 29 30 31 32 32 33 35 36 36 38
Wind_Direction
345 346 344 344 340 333 330 328 329 332 334 336 340 343 342 342 343 343 343 344 345 346 346 345 344 343 342 341 341 342 343 345 347 348 348 348 350 351 351 351 351 351
345 346 344 344 342 339 336 332 331 332 333 335 338 341 340 339 339 338 337 337 337 338 339 340 340 339 338 337 336 337 339 341 343 345 347 347 348 350 350 350 350 351
344 345 344 343 342 342 341 339 337 336 335 335 337 339 339 338 337 336 335 335 335 336 337 338 338 338 338 337 337 337 337 339 341 343 345 346 347 349 350 350 351 351
343 343 343 342 341 342 342 341 341 340 339 339 339 338 338 337 337 336 334 334 334 335 336 337 337 337 338 338 338 338 338 339 340 341 343 345 347 348 349 350 350 351
343 342 342 342 341 341 341 341 341 341 340 340 339 338 338 337 336 334 333 333 333 334 335 335 336 337 337 337 338 339 340 340 340 340 341 344 346 347 349 350 350 350
343 342 341 341 342 342 342 341 340 339 339 339 339 338 338 337 336 335 334 334 334 335 335 336 336 337 337 337 338 340 341 341 341 340 341 343 345 346 348 350 350 350
343 341 340 340 342 343 342 342 340 339 338 338 338 338 337 337 337 337 336 336 336 336 337 337 337 337 337 337 338 340 341 341 341 341 341 342 344 346 348 350 350 350
343 342 342 341 342 342 342 341 340 338 337 337 337 337 337 337 337 337 337 336 336 336 336 337 337 337 337 338 339 340 341 342 342 342 342 343 344 346 348 349 350 350
344 344 344 343 343 342 340 339 337 336 335 335 335 336 336 336 336 336 336 336 337 336 336 336 336 336 337 338 339 340 340 342 342 342 343 344 344 346 348 349 350 350
343 343 344 344 343 341 339 337 336 334 333 333 334 333 334 334 335 335 336 336 337 337 336 335 335 336 336 337 339 340 340 341 342 343 344 344 345 346 348 349 350 350
343 342 342 342 342 341 340 338 336 334 334 333 333 333 333 333 334 335 336 336 337 337 337 336 335 336 336 337 338 340 340 341 342 343 344 345 346 347 348 349 350 351
339 339 339 340 341 341 341 339 338 337 335 335 336 335 334 333 334 335 336 337 338 338 337 336 336 336 337 337 337 339 340 341 342 344 345 346 347 347 349 350 350 351
333 334 335 337 338 338 337 337 337 336 335 335 337 337 336 335 335 335 337 338 338 338 338 337 336 336 337 337 338 338 339 340 342 344 346 347 347 348 349 350 350 351
328 329 330 332 334 333 332 331 332 332 331 331 333 335 336 337 336 336 338 338 338 338 338 338 336 336 337 338 338 338 339 340 341 343 345 347 347 348 349 350 351 351
325 325 326 328 329 330 329 327 326 327 327 327 328 330 332 335 336 335 336 337 338 338 338 338 337 336 337 337 337 337 338 339 341 343 345 346 347 347 349 350 351 352
324 323 324 325 326 326 325 323 323 324 324 325 325 326 328 330 331 332 331 333 336 338 338 338 337 336 336 336 336 337 338 339 340 342 344 346 346 347 349 350 351 352
322 322 323 322 322 322 321 320 321 321 321 322 323 324 325 325 326 328 328 329 332 335 337 337 336 336 336 336 336 336 337 338 339 341 343 345 346 347 348 349 351 352
321 321 321 321 320 319 319 319 318 318 318 320 321 322 323 323 323 325 326 326 326 329 332 333 333 334 335 336 336 336 336 337 338 340 342 344 345 346 347 349 351 352
320 320 321 321 320 319 318 317 316 316 317 318 319 319 320 320 321 322 322 322 322 323 325 328 329 331 333 335 335 335 335 336 337 339 341 343 344 345 346 348 350 352
320 320 320 321 320 319 319 318 317 316 316 316 316 316 316 317 317 318 319 318 318 319 321 324 325 325 327 331 333 333 333 334 337 338 340 341 343 344 345 347 350 351
319 319 319 320 319 318 318 317 317 317 317 316 315 315 314 314 314 315 316 316 316 317 318 321 321 321 322 326 329 330 331 333 336 338 339 340 342 343 344 346 349 351
316 316 317 317 317 316 316 316 317 317 317 317 317 316 315 315 314 314 315 315 316 316 317 318 318 319 321 324 325 326 327 331 335 338 339 340 341 342 342 344 348 350
313 313 313 314 313 313 314 314 314 315 316 317 318 318 317 317 317 316 315 315 315 316 316 315 316 317 319 322 323 322 323 328 333 337 338 340 340 341 341 343 347 349
309 309 310 311 312 313 312 312 312 312 313 315 317 318 317 317 317 318 318 317 315 315 315 314 315 316 317 321 322 320 321 325 331 335 337 339 340 339 340 342 345 348
306 306 307 308 310 310 309 308 308 309 310 312 314 315 315 314 315 317 319 319 318 317 316 315 316 315 315 318 320 320 320 323 327 332 336 338 339 339 339 340 343 347
304 304 305 306 307 305 302 302 304 306 308 309 310 310 310 310 311 312 315 317 318 318 318 318 318 317 316 314 313 314 317 320 323 328 332 336 338 338 338 339 341 345
Height
5761 5760 5758 5757 5755 5754 5753 5751 5749 5748 5746 5744 5742 5740 5738 5736 5734 5733 5731 5728 5726 5723 5721 5718 5716 5713 5710 5707 5704 5701 5698 5694 5691 5687 5684 5680 5676 5672 5668 5664 5660 5655
5761 5760 5758 5757 5755 5754 5752 5750 5749 5747 5745 5743 5742 5740 5738 5736 5734 5732 5730 5727 5725 5723 5720 5717 5715 5712 5709 5706 5703 5699 5696 5693 5690 5686 5682 5679 5675 5671 5667 5663 5658 5654
5761 5760 5758 5757 5755 5753 5752 5750 5748 5746 5745 5743 5741 5739 5737 5735 5733 5731 5729 5726 5724 5722 5719 5716 5714 5711 5708 5704 5701 5698 5695 5691 5688 5685 5681 5677 5674 5670 5666 5661 5657 5652
5761 5759 5758 5756 5755 5753 5751 5749 5748 5746 5744 5742 5740 5738 5736 5734 5732 5730 5728 5725 5723 5720 5718 5715 5712 5710 5706 5703 5700 5697 5693 5690 5687 5684 5680 5676 5672 5669 5665 5660 5655 5651
5760 5759 5757 5756 5754 5753 5751 5749 5747 5745 5743 5741 5739 5737 5735 5733 5731 5729 5727 5724 5722 5719 5717 5714 5711 5708 5705 5702 5699 5695 5692 5689 5686 5682 5679 5675 5671 5667 5663 5659 5654 5650
5760 5759 5757 5756 5754 5752 5750 5749 5747 5745 5743 5741 5739 5737 5734 5732 5730 5728 5726 5723 5721 5718 5715 5713 5710 5707 5704 5701 5698 5694 5691 5688 5684 5681 5677 5673 5669 5665 5661 5657 5653 5648
5760 5759 5757 5755 5754 5752 5750 5748 5747 5745 5743 5741 5739 5736 5734 5732 5729 5727 5725 5722 5719 5717 5714 5712 5709 5706 5703 5700 5697 5693 5690 5687 5683 5680 5676 5672 5668 5664 5660 5656 5652 5647
5760 5759 5757 5755 5753 5751 5749 5748 5746 5744 5743 5741 5738 5736 5734 5731 5729 5727 5724 5721 5719 5716 5713 5710 5708 5705 5702 5699 5696 5692 5689 5686 5682 5679 5675 5671 5667 5663 5658 5654 5650 5646
5759 5758 5756 5754 5752 5750 5749 5747 5745 5744 5742 5740 5738 5736 5733 5731 5729 5726 5724 5721 5718 5715 5712 5710 5707 5704 5701 5698 5695 5692 5688 5685 5681 5678 5674 5670 5666 5662 5658 5653 5649 5644
5758 5757 5755 5753 5751 5749 5748 5746 5744 5743 5741 5739 5737 5735 5733 5730 5728 5726 5723 5721 5718 5715 5712 5709 5707 5704 5700 5697 5694 5691 5687 5684 5680 5677 5673 5669 5665 5661 5657 5652 5648 5643
5757 5756 5754 5752 5750 5748 5746 5745 5743 5741 5740 5738 5736 5734 5731 5729 5727 5725 5722 5720 5717 5714 5712 5709 5706 5703 5700 5696 5693 5690 5686 5683 5680 5676 5672 5668 5664 5660 5656 5651 5647 5642
5756 5754 5753 5751 5749 5747 5745 5743 5742 5740 5738 5736 5734 5732 5730 5728 5726 5724 5721 5719 5716 5713 5711 5708 5705 5702 5699 5696 5692 5689 5686 5682 5679 5675 5671 5667 5663 5659 5655 5650 5646 5641
5755 5753 5752 5750 5748 5746 5744 5742 5741 5739 5736 5734 5732 5731 5729 5726 5724 5722 5720 5717 5715 5712 5710 5707 5704 5701 5698 5695 5692 5688 5685 5681 5678 5674 5670 5666 5662 5658 5654 5650 5645 5640
5754 5752 5750 5748 5747 5745 5743 5741 5739 5737 5735 5733 5731 5729 5727 5725 5723 5721 5718 5716 5714 5711 5708 5706 5703 5700 5697 5694 5691 5688 5684 5681 5677 5673 5669 5666 5662 5657 5653 5649 5644 5640
5753 5751 5750 5747 5745 5744 5742 5739 5737 5736 5734 5731 5729 5728 5726 5724 5721 5719 5717 5715 5712 5710 5707 5704 5702 5699 5696 5693 5690 5687 5683 5680 5676 5673 5669 5665 5661 5657 5653 5648 5644 5639
5752 5750 5748 5746 5744 5742 5740 5738 5736 5734 5732 5730 5728 5726 5724 5722 5720 5718 5716 5713 5711 5708 5705 5703 5700 5698 5695 5692 5689 5685 5682 5679 5675 5672 5668 5664 5660 5656 5652 5647 5643 5639
5751 5749 5747 5745 5743 5741 5739 5737 5734 5732 5730 5728 5726 5724 5722 5720 5718 5716 5714 5712 5709 5707 5704 5701 5699 5696 5693 5691 5687 5684 5681 5677 5674 5670 5667 5663 5660 5655 5651 5647 5643 5638
5749 5747 5745 5744 5742 5740 5738 5736 5733 5731 5729 5727 5724 5722 5720 5718 5716 5714 5712 5710 5708 5705 5702 5700 5697 5694 5692 5689 5686 5683 5680 5676 5673 5669 5666 5663 5659 5655 5651 5647 5642 5638
5747 5745 5744 5742 5740 5738 5736 5734 5732 5729 5727 5725 5722 5720 5718 5716 5714 5712 5710 5708 5706 5703 5700 5698 5695 5693 5690 5687 5685 5682 5678 5675 5672 5669 5665 5662 5658 5655 5651 5646 5642 5638
5744 5743 5741 5739 5737 5735 5734 5732 5730 5728 5726 5723 5721 5719 5716 5714 5712 5710 5708 5706 5703 5701 5699 5696 5694 5691 5689 5686 5683 5680 5677 5674 5671 5668 5664 5661 5658 5654 5650 5646 5642 5638
5741 5739 5738 5737 5735 5733 5731 5729 5728 5726 5724 5722 5719 5716 5714 5712 5710 5708 5706 5704 5701 5699 5697 5694 5692 5689 5687 5684 5682 5679 5676 5673 5670 5666 5663 5660 5657 5654 5650 5646 5642 5638
5738 5736 5734 5733 5732 5730 5728 5727 5725 5723 5721 5719 5716 5714 5712 5710 5708 5706 5703 5701 5699 5696 5694 5692 5690 5687 5685 5683 5680 5677 5675 5671 5668 5665 5662 5660 5657 5653 5649 5646 5642 5638
5735 5733 5731 5730 5728 5727 5725 5724 5722 5720 5718 5716 5714 5711 5709 5707 5705 5703 5701 5699 5696 5694 5692 5690 5687 5685 5683 5681 5678 5675 5673 5670 5667 5664 5661 5658 5656 5653 5649 5645 5642 5638
5731 5729 5727 5726 5724 5722 5721 5720 5718 5717 5715 5713 5711 5709 5706 5704 5702 5700 5698 5696 5694 5691 5689 5687 5685 5683 5681 5678 5676 5673 5671 5668 5665 5662 5660 5657 5655 5652 5649 5645 5641 5637
5728 5726 5724 5723 5721 5719 5717 5716 5714 5713 5711 5709 5707 5706 5703 5701 5699 5697 5695 5694 5692 5689 5687 5684 5682 5680 5678 5676 5674 5672 5669 5667 5664 5661 5658 5656 5654 5651 5648 5644 5641 5637
5725 5723 5721 5719 5719 5717 5715 5712 5710 5709 5708 5706 5703 5702 5700 5698 5696 5694 5692 5691 5689 5687 5684 5682 5680 5677 5675 5674 5672 5670 5668 5665 5662 5660 5657 5655 5652 5650 5647 5644 5640 5637